Year,Month,Day,Hour,Minute,Value (Times are PST for temperature in C)
2017,01,17,00,00,2.40
2017,01,17,00,01,2.30
2017,01,17,00,02,2.30
2017,01,17,00,03,2.30
2017,01,17,00,04,2.30
2017,01,17,00,05,2.30
2017,01,17,00,06,2.30
2017,01,17,00,07,2.30
2017,01,17,00,08,2.30
2017,01,17,00,09,2.30
2017,01,17,00,10,2.30
2017,01,17,00,11,2.30
2017,01,17,00,12,2.40
2017,01,17,00,13,2.40
2017,01,17,00,14,2.40
2017,01,17,00,15,2.40
2017,01,17,00,16,2.40
2017,01,17,00,17,2.50
2017,01,17,00,18,2.50
2017,01,17,00,19,2.40
2017,01,17,00,20,2.50
2017,01,17,00,21,2.50
2017,01,17,00,22,2.50
2017,01,17,00,23,2.50
2017,01,17,00,24,2.60
2017,01,17,00,25,2.60
2017,01,17,00,26,2.60
2017,01,17,00,27,2.60
2017,01,17,00,28,2.60
2017,01,17,00,29,2.50
2017,01,17,00,30,2.50
2017,01,17,00,31,2.40
2017,01,17,00,32,2.40
2017,01,17,00,33,2.40
2017,01,17,00,34,2.40
2017,01,17,00,35,2.40
2017,01,17,00,36,2.50
2017,01,17,00,37,2.60
2017,01,17,00,38,2.60
2017,01,17,00,39,2.60
2017,01,17,00,40,2.70
2017,01,17,00,41,2.70
2017,01,17,00,42,2.70
2017,01,17,00,43,2.70
2017,01,17,00,44,2.70
2017,01,17,00,45,2.70
2017,01,17,00,46,2.70
2017,01,17,00,47,2.60
2017,01,17,00,48,2.60
2017,01,17,00,49,2.60
2017,01,17,00,50,2.60
2017,01,17,00,51,2.70
2017,01,17,00,52,2.70
2017,01,17,00,53,2.70
2017,01,17,00,54,2.80
2017,01,17,00,55,2.80
2017,01,17,00,56,2.80
2017,01,17,00,57,2.80
2017,01,17,00,58,2.80
2017,01,17,00,59,2.70
2017,01,17,01,00,2.70
2017,01,17,01,01,2.70
2017,01,17,01,02,2.80
2017,01,17,01,03,2.80
2017,01,17,01,04,2.80
2017,01,17,01,05,2.80
2017,01,17,01,06,2.90
2017,01,17,01,07,2.90
2017,01,17,01,08,2.90
2017,01,17,01,09,2.90
2017,01,17,01,10,2.90
2017,01,17,01,11,2.90
2017,01,17,01,12,2.90
2017,01,17,01,13,2.90
2017,01,17,01,14,2.90
2017,01,17,01,15,2.90
2017,01,17,01,16,2.90
2017,01,17,01,17,2.90
2017,01,17,01,18,2.90
2017,01,17,01,19,3.00
2017,01,17,01,20,3.00
2017,01,17,01,21,3.00
2017,01,17,01,22,3.00
2017,01,17,01,23,3.00
2017,01,17,01,24,3.00
2017,01,17,01,25,3.00
2017,01,17,01,26,3.00
2017,01,17,01,27,3.00
2017,01,17,01,28,3.00
2017,01,17,01,29,2.90
2017,01,17,01,30,2.90
2017,01,17,01,31,2.90
2017,01,17,01,32,2.90
2017,01,17,01,33,2.90
2017,01,17,01,34,2.90
2017,01,17,01,35,2.90
2017,01,17,01,36,2.90
2017,01,17,01,37,2.90
2017,01,17,01,38,2.90
2017,01,17,01,39,2.90
2017,01,17,01,40,2.90
2017,01,17,01,41,2.90
2017,01,17,01,42,2.90
2017,01,17,01,43,2.90
2017,01,17,01,44,2.90
2017,01,17,01,45,2.90
2017,01,17,01,46,2.90
2017,01,17,01,47,2.90
2017,01,17,01,48,2.90
2017,01,17,01,49,2.80
2017,01,17,01,50,2.80
2017,01,17,01,51,2.80
2017,01,17,01,52,2.80
2017,01,17,01,53,2.80
2017,01,17,01,54,2.80
2017,01,17,01,55,2.90
2017,01,17,01,56,2.90
2017,01,17,01,57,2.90
2017,01,17,01,58,2.90
2017,01,17,01,59,3.00
2017,01,17,02,00,3.00
2017,01,17,02,01,2.90
2017,01,17,02,02,2.90
2017,01,17,02,03,2.90
2017,01,17,02,04,2.90
2017,01,17,02,05,3.00
2017,01,17,02,06,3.00
2017,01,17,02,07,3.10
2017,01,17,02,08,3.10
2017,01,17,02,09,3.10
2017,01,17,02,10,3.20
2017,01,17,02,11,3.30
2017,01,17,02,12,3.30
2017,01,17,02,13,3.30
2017,01,17,02,14,3.40
2017,01,17,02,15,3.30
2017,01,17,02,16,3.20
2017,01,17,02,17,3.20
2017,01,17,02,18,3.20
2017,01,17,02,19,3.20
2017,01,17,02,20,3.20
2017,01,17,02,21,3.30
2017,01,17,02,22,3.40
2017,01,17,02,23,3.40
2017,01,17,02,24,3.40
2017,01,17,02,25,3.40
2017,01,17,02,26,3.40
2017,01,17,02,27,3.50
2017,01,17,02,28,3.50
2017,01,17,02,29,3.60
2017,01,17,02,30,3.50
2017,01,17,02,31,3.50
2017,01,17,02,32,3.40
2017,01,17,02,33,3.40
2017,01,17,02,34,3.30
2017,01,17,02,35,3.30
2017,01,17,02,36,3.30
2017,01,17,02,37,3.30
2017,01,17,02,38,3.20
2017,01,17,02,39,3.30
2017,01,17,02,40,3.30
2017,01,17,02,41,3.30
2017,01,17,02,42,3.30
2017,01,17,02,43,3.30
2017,01,17,02,44,3.30
2017,01,17,02,45,3.40
2017,01,17,02,46,3.40
2017,01,17,02,47,3.30
2017,01,17,02,48,3.30
2017,01,17,02,49,3.30
2017,01,17,02,50,3.30
2017,01,17,02,51,3.30
2017,01,17,02,52,3.40
2017,01,17,02,53,3.40
2017,01,17,02,54,3.40
2017,01,17,02,55,3.40
2017,01,17,02,56,3.30
2017,01,17,02,57,3.30
2017,01,17,02,58,3.30
2017,01,17,02,59,3.20
2017,01,17,03,00,3.20
2017,01,17,03,01,3.20
2017,01,17,03,02,3.20
2017,01,17,03,03,3.10
2017,01,17,03,04,3.10
2017,01,17,03,05,3.10
2017,01,17,03,06,3.10
2017,01,17,03,07,3.00
2017,01,17,03,08,3.00
2017,01,17,03,09,3.00
2017,01,17,03,10,2.90
2017,01,17,03,11,2.90
2017,01,17,03,12,2.90
2017,01,17,03,13,2.90
2017,01,17,03,14,2.90
2017,01,17,03,15,3.00
2017,01,17,03,16,3.10
2017,01,17,03,17,3.10
2017,01,17,03,18,3.10
2017,01,17,03,19,3.20
2017,01,17,03,20,3.20
2017,01,17,03,21,3.20
2017,01,17,03,22,3.30
2017,01,17,03,23,3.30
2017,01,17,03,24,3.30
2017,01,17,03,25,3.30
2017,01,17,03,26,3.30
2017,01,17,03,27,3.30
2017,01,17,03,28,3.30
2017,01,17,03,29,3.30
2017,01,17,03,30,3.30
2017,01,17,03,31,3.20
2017,01,17,03,32,3.20
2017,01,17,03,33,3.20
2017,01,17,03,34,3.10
2017,01,17,03,35,3.10
2017,01,17,03,36,3.10
2017,01,17,03,37,3.10
2017,01,17,03,38,3.10
2017,01,17,03,39,3.00
2017,01,17,03,40,3.00
2017,01,17,03,41,2.90
2017,01,17,03,42,2.90
2017,01,17,03,43,2.90
2017,01,17,03,44,2.90
2017,01,17,03,45,2.90
2017,01,17,03,46,3.00
2017,01,17,03,47,3.00
2017,01,17,03,48,3.10
2017,01,17,03,49,3.10
2017,01,17,03,50,3.00
2017,01,17,03,51,3.00
2017,01,17,03,52,3.00
2017,01,17,03,53,3.10
2017,01,17,03,54,3.10
2017,01,17,03,55,3.20
2017,01,17,03,56,3.20
2017,01,17,03,57,3.20
2017,01,17,03,58,3.20
2017,01,17,03,59,3.10
2017,01,17,04,00,3.10
2017,01,17,04,01,3.00
2017,01,17,04,02,3.00
2017,01,17,04,03,3.00
2017,01,17,04,04,3.00
2017,01,17,04,05,3.00
2017,01,17,04,06,2.90
2017,01,17,04,07,2.90
2017,01,17,04,08,2.80
2017,01,17,04,09,2.80
2017,01,17,04,10,2.80
2017,01,17,04,11,2.80
2017,01,17,04,12,2.80
2017,01,17,04,13,2.80
2017,01,17,04,14,2.80
2017,01,17,04,15,2.90
2017,01,17,04,16,3.00
2017,01,17,04,17,3.10
2017,01,17,04,18,3.10
2017,01,17,04,19,3.00
2017,01,17,04,20,2.90
2017,01,17,04,21,2.80
2017,01,17,04,22,2.80
2017,01,17,04,23,2.70
2017,01,17,04,24,2.80
2017,01,17,04,25,2.80
2017,01,17,04,26,2.80
2017,01,17,04,27,2.80
2017,01,17,04,28,2.90
2017,01,17,04,29,2.90
2017,01,17,04,30,2.90
2017,01,17,04,31,2.90
2017,01,17,04,32,2.80
2017,01,17,04,33,2.80
2017,01,17,04,34,2.80
2017,01,17,04,35,2.80
2017,01,17,04,36,2.80
2017,01,17,04,37,2.90
2017,01,17,04,38,2.90
2017,01,17,04,39,2.90
2017,01,17,04,40,2.90
2017,01,17,04,41,2.90
2017,01,17,04,42,2.80
2017,01,17,04,43,2.80
2017,01,17,04,44,2.80
2017,01,17,04,45,2.70
2017,01,17,04,46,2.70
2017,01,17,04,47,2.70
2017,01,17,04,48,2.70
2017,01,17,04,49,2.70
2017,01,17,04,50,2.80
2017,01,17,04,51,2.70
2017,01,17,04,52,2.70
2017,01,17,04,53,2.70
2017,01,17,04,54,2.70
2017,01,17,04,55,2.70
2017,01,17,04,56,2.60
2017,01,17,04,57,2.60
2017,01,17,04,58,2.70
2017,01,17,04,59,2.70
2017,01,17,05,00,2.70
2017,01,17,05,01,2.70
2017,01,17,05,02,2.80
2017,01,17,05,03,2.80
2017,01,17,05,04,2.80
2017,01,17,05,05,2.90
2017,01,17,05,06,2.90
2017,01,17,05,07,3.00
2017,01,17,05,08,3.00
2017,01,17,05,09,3.10
2017,01,17,05,10,3.20
2017,01,17,05,11,3.30
2017,01,17,05,12,3.30
2017,01,17,05,13,3.30
2017,01,17,05,14,3.20
2017,01,17,05,15,3.30
2017,01,17,05,16,3.30
2017,01,17,05,17,3.30
2017,01,17,05,18,3.30
2017,01,17,05,19,3.40
2017,01,17,05,20,3.50
2017,01,17,05,21,3.50
2017,01,17,05,22,3.60
2017,01,17,05,23,3.60
2017,01,17,05,24,3.60
2017,01,17,05,25,3.60
2017,01,17,05,26,3.60
2017,01,17,05,27,3.70
2017,01,17,05,28,3.70
2017,01,17,05,29,3.70
2017,01,17,05,30,3.70
2017,01,17,05,31,3.70
2017,01,17,05,32,3.80
2017,01,17,05,33,3.80
2017,01,17,05,34,3.90
2017,01,17,05,35,3.90
2017,01,17,05,36,3.90
2017,01,17,05,37,3.90
2017,01,17,05,38,3.90
2017,01,17,05,39,3.80
2017,01,17,05,40,3.80
2017,01,17,05,41,3.70
2017,01,17,05,42,3.70
2017,01,17,05,43,3.60
2017,01,17,05,44,3.60
2017,01,17,05,45,3.60
2017,01,17,05,46,3.60
2017,01,17,05,47,3.70
2017,01,17,05,48,3.70
2017,01,17,05,49,3.70
2017,01,17,05,50,3.70
2017,01,17,05,51,3.70
2017,01,17,05,52,3.70
2017,01,17,05,53,3.70
2017,01,17,05,54,3.70
2017,01,17,05,55,3.60
2017,01,17,05,56,3.60
2017,01,17,05,57,3.50
2017,01,17,05,58,3.50
2017,01,17,05,59,3.50
2017,01,17,06,00,3.60
2017,01,17,06,01,3.60
2017,01,17,06,02,3.70
2017,01,17,06,03,3.70
2017,01,17,06,04,3.80
2017,01,17,06,05,3.80
2017,01,17,06,06,3.90
2017,01,17,06,07,4.00
2017,01,17,06,08,4.10
2017,01,17,06,09,4.20
2017,01,17,06,10,4.20
2017,01,17,06,11,4.30
2017,01,17,06,12,4.20
2017,01,17,06,13,4.20
2017,01,17,06,14,4.10
2017,01,17,06,15,4.00
2017,01,17,06,16,4.00
2017,01,17,06,17,3.90
2017,01,17,06,18,3.90
2017,01,17,06,19,3.80
2017,01,17,06,20,3.80
2017,01,17,06,21,3.70
2017,01,17,06,22,3.70
2017,01,17,06,23,3.60
2017,01,17,06,24,3.60
2017,01,17,06,25,3.60
2017,01,17,06,26,3.60
2017,01,17,06,27,3.60
2017,01,17,06,28,3.70
2017,01,17,06,29,3.70
2017,01,17,06,30,3.70
2017,01,17,06,31,3.70
2017,01,17,06,32,3.70
2017,01,17,06,33,3.70
2017,01,17,06,34,3.80
2017,01,17,06,35,3.80
2017,01,17,06,36,3.90
2017,01,17,06,37,4.00
2017,01,17,06,38,4.10
2017,01,17,06,39,4.10
2017,01,17,06,40,4.20
2017,01,17,06,41,4.20
2017,01,17,06,42,4.30
2017,01,17,06,43,4.50
2017,01,17,06,44,4.50
2017,01,17,06,45,4.60
2017,01,17,06,46,4.70
2017,01,17,06,47,4.80
2017,01,17,06,48,5.00
2017,01,17,06,49,5.10
2017,01,17,06,50,5.20
2017,01,17,06,51,5.30
2017,01,17,06,52,5.30
2017,01,17,06,53,5.40
2017,01,17,06,54,5.40
2017,01,17,06,55,5.50
2017,01,17,06,56,5.60
2017,01,17,06,57,5.60
2017,01,17,06,58,5.70
2017,01,17,06,59,5.80
2017,01,17,07,00,5.90
2017,01,17,07,01,5.90
2017,01,17,07,02,6.00
2017,01,17,07,03,6.10
2017,01,17,07,04,6.10
2017,01,17,07,05,6.20
2017,01,17,07,06,6.10
2017,01,17,07,07,6.10
2017,01,17,07,08,6.10
2017,01,17,07,09,6.10
2017,01,17,07,10,6.10
2017,01,17,07,11,6.00
2017,01,17,07,12,6.00
2017,01,17,07,13,5.90
2017,01,17,07,14,5.90
2017,01,17,07,15,5.90
2017,01,17,07,16,5.90
2017,01,17,07,17,5.90
2017,01,17,07,18,6.00
2017,01,17,07,19,6.00
2017,01,17,07,20,6.00
2017,01,17,07,21,6.00
2017,01,17,07,22,6.00
2017,01,17,07,23,6.00
2017,01,17,07,24,6.10
2017,01,17,07,25,6.10
2017,01,17,07,26,6.10
2017,01,17,07,27,6.10
2017,01,17,07,28,6.10
2017,01,17,07,29,6.10
2017,01,17,07,30,6.10
2017,01,17,07,31,6.10
2017,01,17,07,32,6.20
2017,01,17,07,33,6.20
2017,01,17,07,34,6.30
2017,01,17,07,35,6.40
2017,01,17,07,36,6.40
2017,01,17,07,37,6.50
2017,01,17,07,38,6.50
2017,01,17,07,39,6.60
2017,01,17,07,40,6.60
2017,01,17,07,41,6.70
2017,01,17,07,42,6.70
2017,01,17,07,43,6.60
2017,01,17,07,44,6.60
2017,01,17,07,45,6.60
2017,01,17,07,46,6.50
2017,01,17,07,47,6.50
2017,01,17,07,48,6.40
2017,01,17,07,49,6.40
2017,01,17,07,50,6.40
2017,01,17,07,51,6.40
2017,01,17,07,52,6.30
2017,01,17,07,53,6.30
2017,01,17,07,54,6.30
2017,01,17,07,55,6.30
2017,01,17,07,56,6.40
2017,01,17,07,57,6.50
2017,01,17,07,58,6.70
2017,01,17,07,59,6.80
2017,01,17,08,00,6.90
2017,01,17,08,01,7.00
2017,01,17,08,02,7.10
2017,01,17,08,03,7.20
2017,01,17,08,04,7.30
2017,01,17,08,05,7.50
2017,01,17,08,06,7.60
2017,01,17,08,07,7.60
2017,01,17,08,08,7.60
2017,01,17,08,09,7.50
2017,01,17,08,10,7.60
2017,01,17,08,11,7.60
2017,01,17,08,12,7.60
2017,01,17,08,13,7.50
2017,01,17,08,14,7.40
2017,01,17,08,15,7.30
2017,01,17,08,16,7.10
2017,01,17,08,17,7.00
2017,01,17,08,18,6.90
2017,01,17,08,19,6.90
2017,01,17,08,20,6.80
2017,01,17,08,21,6.70
2017,01,17,08,22,6.70
2017,01,17,08,23,6.70
2017,01,17,08,24,6.70
2017,01,17,08,25,6.70
2017,01,17,08,26,6.60
2017,01,17,08,27,6.60
2017,01,17,08,28,6.60
2017,01,17,08,29,6.60
2017,01,17,08,30,6.70
2017,01,17,08,31,6.80
2017,01,17,08,32,6.80
2017,01,17,08,33,6.80
2017,01,17,08,34,6.80
2017,01,17,08,35,6.80
2017,01,17,08,36,6.80
2017,01,17,08,37,6.70
2017,01,17,08,38,6.70
2017,01,17,08,39,6.70
2017,01,17,08,40,6.80
2017,01,17,08,41,7.00
2017,01,17,08,42,7.20
2017,01,17,08,43,7.30
2017,01,17,08,44,7.60
2017,01,17,08,45,7.80
2017,01,17,08,46,7.80
2017,01,17,08,47,7.80
2017,01,17,08,48,7.70
2017,01,17,08,49,7.70
2017,01,17,08,50,7.70
2017,01,17,08,51,7.70
2017,01,17,08,52,7.60
2017,01,17,08,53,7.60
2017,01,17,08,54,7.70
2017,01,17,08,55,7.80
2017,01,17,08,56,8.00
2017,01,17,08,57,8.20
2017,01,17,08,58,8.20
2017,01,17,08,59,8.20
2017,01,17,09,00,8.10
2017,01,17,09,01,8.10
2017,01,17,09,02,8.10
2017,01,17,09,03,8.20
2017,01,17,09,04,8.40
2017,01,17,09,05,8.50
2017,01,17,09,06,8.60
2017,01,17,09,07,8.60
2017,01,17,09,08,8.70
2017,01,17,09,09,8.70
2017,01,17,09,10,8.70
2017,01,17,09,11,8.70
2017,01,17,09,12,8.80
2017,01,17,09,13,8.90
2017,01,17,09,14,9.00
2017,01,17,09,15,9.00
2017,01,17,09,16,9.10
2017,01,17,09,17,9.10
2017,01,17,09,18,9.10
2017,01,17,09,19,9.10
2017,01,17,09,20,9.20
2017,01,17,09,21,9.30
2017,01,17,09,22,9.30
2017,01,17,09,23,9.30
2017,01,17,09,24,9.30
2017,01,17,09,25,9.20
2017,01,17,09,26,9.00
2017,01,17,09,27,8.90
2017,01,17,09,28,8.80
2017,01,17,09,29,8.80
2017,01,17,09,30,8.70
2017,01,17,09,31,8.60
2017,01,17,09,32,8.60
2017,01,17,09,33,8.60
2017,01,17,09,34,8.60
2017,01,17,09,35,8.60
2017,01,17,09,36,8.70
2017,01,17,09,37,8.80
2017,01,17,09,38,8.90
2017,01,17,09,39,9.00
2017,01,17,09,40,9.00
2017,01,17,09,41,9.00
2017,01,17,09,42,9.00
2017,01,17,09,43,9.00
2017,01,17,09,44,9.00
2017,01,17,09,45,9.00
2017,01,17,09,46,9.10
2017,01,17,09,47,9.20
2017,01,17,09,48,9.20
2017,01,17,09,49,9.30
2017,01,17,09,50,9.30
2017,01,17,09,51,9.30
2017,01,17,09,52,9.30
2017,01,17,09,53,9.20
2017,01,17,09,54,9.10
2017,01,17,09,55,9.00
2017,01,17,09,56,8.90
2017,01,17,09,57,8.80
2017,01,17,09,58,8.80
2017,01,17,09,59,8.70
2017,01,17,10,00,8.60
2017,01,17,10,01,8.50
2017,01,17,10,02,8.40
2017,01,17,10,03,8.40
2017,01,17,10,04,8.40
2017,01,17,10,05,8.40
2017,01,17,10,06,8.40
2017,01,17,10,07,8.30
2017,01,17,10,08,8.30
2017,01,17,10,09,8.30
2017,01,17,10,10,8.30
2017,01,17,10,11,8.30
2017,01,17,10,12,8.50
2017,01,17,10,13,8.60
2017,01,17,10,14,8.80
2017,01,17,10,15,8.80
2017,01,17,10,16,8.80
2017,01,17,10,17,8.90
2017,01,17,10,18,8.90
2017,01,17,10,19,8.90
2017,01,17,10,20,8.90
2017,01,17,10,21,8.90
2017,01,17,10,22,8.90
2017,01,17,10,23,9.00
2017,01,17,10,24,9.00
2017,01,17,10,25,9.20
2017,01,17,10,26,9.20
2017,01,17,10,27,9.30
2017,01,17,10,28,9.30
2017,01,17,10,29,9.40
2017,01,17,10,30,9.40
2017,01,17,10,31,9.50
2017,01,17,10,32,9.50
2017,01,17,10,33,9.60
2017,01,17,10,34,9.60
2017,01,17,10,35,9.60
2017,01,17,10,36,9.60
2017,01,17,10,37,9.60
2017,01,17,10,38,9.60
2017,01,17,10,39,9.60
2017,01,17,10,40,9.70
2017,01,17,10,41,9.70
2017,01,17,10,42,9.70
2017,01,17,10,43,9.80
2017,01,17,10,44,9.80
2017,01,17,10,45,9.80
2017,01,17,10,46,9.80
2017,01,17,10,47,9.80
2017,01,17,10,48,9.80
2017,01,17,10,49,9.80
2017,01,17,10,50,9.80
2017,01,17,10,51,9.80
2017,01,17,10,52,9.70
2017,01,17,10,53,9.70
2017,01,17,10,54,9.70
2017,01,17,10,55,9.70
2017,01,17,10,56,9.70
2017,01,17,10,57,9.80
2017,01,17,10,58,9.80
2017,01,17,10,59,9.90
2017,01,17,11,00,9.90
2017,01,17,11,01,9.90
2017,01,17,11,02,9.90
2017,01,17,11,03,9.90
2017,01,17,11,04,9.90
2017,01,17,11,05,9.80
2017,01,17,11,06,9.80
2017,01,17,11,07,9.80
2017,01,17,11,08,9.80
2017,01,17,11,09,9.80
2017,01,17,11,10,9.80
2017,01,17,11,11,9.80
2017,01,17,11,12,9.80
2017,01,17,11,13,9.80
2017,01,17,11,14,9.90
2017,01,17,11,15,9.80
2017,01,17,11,16,9.80
2017,01,17,11,17,9.90
2017,01,17,11,18,9.90
2017,01,17,11,19,9.90
2017,01,17,11,20,9.90
2017,01,17,11,21,9.90
2017,01,17,11,22,10.00
2017,01,17,11,23,10.00
2017,01,17,11,24,10.10
2017,01,17,11,25,10.10
2017,01,17,11,26,10.10
2017,01,17,11,27,10.10
2017,01,17,11,28,10.10
2017,01,17,11,29,10.10
2017,01,17,11,30,10.10
2017,01,17,11,31,10.20
2017,01,17,11,32,10.20
2017,01,17,11,33,10.20
2017,01,17,11,34,10.20
2017,01,17,11,35,10.10
2017,01,17,11,36,10.10
2017,01,17,11,37,10.10
2017,01,17,11,38,10.20
2017,01,17,11,39,10.10
2017,01,17,11,40,10.10
2017,01,17,11,41,10.20
2017,01,17,11,42,10.20
2017,01,17,11,43,10.20
2017,01,17,11,44,10.10
2017,01,17,11,45,10.10
2017,01,17,11,46,10.00
2017,01,17,11,47,10.00
2017,01,17,11,48,10.00
2017,01,17,11,49,10.00
2017,01,17,11,50,10.10
2017,01,17,11,51,10.10
2017,01,17,11,52,10.10
2017,01,17,11,53,10.20
2017,01,17,11,54,10.20
2017,01,17,11,55,10.20
2017,01,17,11,56,10.20
2017,01,17,11,57,10.20
2017,01,17,11,58,10.20
2017,01,17,11,59,10.30
2017,01,17,12,00,10.30
2017,01,17,12,01,10.30
2017,01,17,12,02,10.30
2017,01,17,12,03,10.30
2017,01,17,12,04,10.30
2017,01,17,12,05,10.30
2017,01,17,12,06,10.30
2017,01,17,12,07,10.30
2017,01,17,12,08,10.30
2017,01,17,12,09,10.30
2017,01,17,12,10,10.30
2017,01,17,12,11,10.30
2017,01,17,12,12,10.30
2017,01,17,12,13,10.40
2017,01,17,12,14,10.40
2017,01,17,12,15,10.40
2017,01,17,12,16,10.40
2017,01,17,12,17,10.50
2017,01,17,12,18,10.60
2017,01,17,12,19,10.70
2017,01,17,12,20,10.70
2017,01,17,12,21,10.80
2017,01,17,12,22,10.80
2017,01,17,12,23,10.80
2017,01,17,12,24,10.80
2017,01,17,12,25,10.80
2017,01,17,12,26,10.80
2017,01,17,12,27,10.80
2017,01,17,12,28,10.80
2017,01,17,12,29,10.80
2017,01,17,12,30,10.90
2017,01,17,12,31,10.90
2017,01,17,12,32,10.90
2017,01,17,12,33,11.00
2017,01,17,12,34,11.00
2017,01,17,12,35,11.10
2017,01,17,12,36,11.10
2017,01,17,12,37,11.20
2017,01,17,12,38,11.20
2017,01,17,12,39,11.20
2017,01,17,12,40,11.20
2017,01,17,12,41,11.20
2017,01,17,12,42,11.20
2017,01,17,12,43,11.20
2017,01,17,12,44,11.20
2017,01,17,12,45,11.20
2017,01,17,12,46,11.20
2017,01,17,12,47,11.20
2017,01,17,12,48,11.10
2017,01,17,12,49,11.10
2017,01,17,12,50,11.10
2017,01,17,12,51,11.10
2017,01,17,12,52,11.00
2017,01,17,12,53,10.90
2017,01,17,12,54,10.90
2017,01,17,12,55,10.90
2017,01,17,12,56,10.90
2017,01,17,12,57,10.90
2017,01,17,12,58,10.90
2017,01,17,12,59,10.90
2017,01,17,13,00,10.90
2017,01,17,13,01,10.90
2017,01,17,13,02,10.90
2017,01,17,13,03,10.90
2017,01,17,13,04,10.90
2017,01,17,13,05,10.90
2017,01,17,13,06,10.90
2017,01,17,13,07,10.90
2017,01,17,13,08,10.90
2017,01,17,13,09,10.90
2017,01,17,13,10,10.90
2017,01,17,13,11,10.90
2017,01,17,13,12,10.90
2017,01,17,13,13,10.90
2017,01,17,13,14,10.90
2017,01,17,13,15,10.90
2017,01,17,13,16,11.00
2017,01,17,13,17,11.00
2017,01,17,13,18,11.00
2017,01,17,13,19,11.00
2017,01,17,13,20,11.00
2017,01,17,13,21,11.00
2017,01,17,13,22,11.00
2017,01,17,13,23,11.10
2017,01,17,13,24,11.10
2017,01,17,13,25,11.00
2017,01,17,13,26,11.00
2017,01,17,13,27,11.00
2017,01,17,13,28,11.00
2017,01,17,13,29,11.00
2017,01,17,13,30,11.00
2017,01,17,13,31,11.00
2017,01,17,13,32,10.90
2017,01,17,13,33,10.90
2017,01,17,13,34,10.90
2017,01,17,13,35,10.90
2017,01,17,13,36,10.90
2017,01,17,13,37,10.80
2017,01,17,13,38,10.80
2017,01,17,13,39,10.80
2017,01,17,13,40,10.80
2017,01,17,13,41,10.80
2017,01,17,13,42,10.80
2017,01,17,13,43,10.80
2017,01,17,13,44,10.80
2017,01,17,13,45,10.80
2017,01,17,13,46,10.80
2017,01,17,13,47,10.70
2017,01,17,13,48,10.70
2017,01,17,13,49,10.70
2017,01,17,13,50,10.70
2017,01,17,13,51,10.70
2017,01,17,13,52,10.70
2017,01,17,13,53,10.70
2017,01,17,13,54,10.70
2017,01,17,13,55,10.60
2017,01,17,13,56,10.60
2017,01,17,13,57,10.60
2017,01,17,13,58,10.60
2017,01,17,13,59,10.60
2017,01,17,14,00,10.50
2017,01,17,14,01,10.50
2017,01,17,14,02,10.50
2017,01,17,14,03,10.40
2017,01,17,14,04,10.40
2017,01,17,14,05,10.40
2017,01,17,14,06,10.40
2017,01,17,14,07,10.40
2017,01,17,14,08,10.40
2017,01,17,14,09,10.40
2017,01,17,14,10,10.30
2017,01,17,14,11,10.30
2017,01,17,14,12,10.30
2017,01,17,14,13,10.30
2017,01,17,14,14,10.20
2017,01,17,14,15,10.20
2017,01,17,14,16,10.10
2017,01,17,14,17,10.10
2017,01,17,14,18,10.10
2017,01,17,14,19,10.00
2017,01,17,14,20,9.90
2017,01,17,14,21,9.90
2017,01,17,14,22,9.90
2017,01,17,14,23,9.80
2017,01,17,14,24,9.80
2017,01,17,14,25,9.80
2017,01,17,14,26,9.80
2017,01,17,14,27,9.80
2017,01,17,14,28,9.80
2017,01,17,14,29,9.70
2017,01,17,14,30,9.70
2017,01,17,14,31,9.70
2017,01,17,14,32,9.70
2017,01,17,14,33,9.60
2017,01,17,14,34,9.60
2017,01,17,14,35,9.60
2017,01,17,14,36,9.50
2017,01,17,14,37,9.50
2017,01,17,14,38,9.50
2017,01,17,14,39,9.40
2017,01,17,14,40,9.40
2017,01,17,14,41,9.40
2017,01,17,14,42,9.40
2017,01,17,14,43,9.40
2017,01,17,14,44,9.40
2017,01,17,14,45,9.30
2017,01,17,14,46,9.30
2017,01,17,14,47,9.30
2017,01,17,14,48,9.30
2017,01,17,14,49,9.30
2017,01,17,14,50,9.30
2017,01,17,14,51,9.30
2017,01,17,14,52,9.20
2017,01,17,14,53,9.20
2017,01,17,14,54,9.20
2017,01,17,14,55,9.20
2017,01,17,14,56,9.20
2017,01,17,14,57,9.20
2017,01,17,14,58,9.20
2017,01,17,14,59,9.20
2017,01,17,15,00,9.20
2017,01,17,15,01,9.10
2017,01,17,15,02,9.10
2017,01,17,15,03,9.00
2017,01,17,15,04,9.00
2017,01,17,15,05,8.90
2017,01,17,15,06,8.90
2017,01,17,15,07,8.80
2017,01,17,15,08,8.70
2017,01,17,15,09,8.70
2017,01,17,15,10,8.60
2017,01,17,15,11,8.60
2017,01,17,15,12,8.60
2017,01,17,15,13,8.50
2017,01,17,15,14,8.50
2017,01,17,15,15,8.40
2017,01,17,15,16,8.40
2017,01,17,15,17,8.30
2017,01,17,15,18,8.30
2017,01,17,15,19,8.20
2017,01,17,15,20,8.20
2017,01,17,15,21,8.20
2017,01,17,15,22,8.20
2017,01,17,15,23,8.20
2017,01,17,15,24,8.10
2017,01,17,15,25,8.10
2017,01,17,15,26,8.10
2017,01,17,15,27,8.10
2017,01,17,15,28,8.10
2017,01,17,15,29,8.10
2017,01,17,15,30,8.10
2017,01,17,15,31,8.20
2017,01,17,15,32,8.20
2017,01,17,15,33,8.20
2017,01,17,15,34,8.20
2017,01,17,15,35,8.20
2017,01,17,15,36,8.20
2017,01,17,15,37,8.20
2017,01,17,15,38,8.20
2017,01,17,15,39,8.20
2017,01,17,15,40,8.20
2017,01,17,15,41,8.30
2017,01,17,15,42,8.30
2017,01,17,15,43,8.30
2017,01,17,15,44,8.30
2017,01,17,15,45,8.30
2017,01,17,15,46,8.30
2017,01,17,15,47,8.30
2017,01,17,15,48,8.30
2017,01,17,15,49,8.30
2017,01,17,15,50,8.30
2017,01,17,15,51,8.30
2017,01,17,15,52,8.30
2017,01,17,15,53,8.30
2017,01,17,15,54,8.30
2017,01,17,15,55,8.30
2017,01,17,15,56,8.30
2017,01,17,15,57,8.30
2017,01,17,15,58,8.30
2017,01,17,15,59,8.30
2017,01,17,16,00,8.30
2017,01,17,16,01,8.30
2017,01,17,16,02,8.30
2017,01,17,16,03,8.30
2017,01,17,16,04,8.30
2017,01,17,16,05,8.30
2017,01,17,16,06,8.30
2017,01,17,16,07,8.30
2017,01,17,16,08,8.30
2017,01,17,16,09,8.30
2017,01,17,16,10,8.30
2017,01,17,16,11,8.30
2017,01,17,16,12,8.30
2017,01,17,16,13,8.30
2017,01,17,16,14,8.30
2017,01,17,16,15,8.30
2017,01,17,16,16,8.30
2017,01,17,16,17,8.30
2017,01,17,16,18,8.30
2017,01,17,16,19,8.30
2017,01,17,16,20,8.30
2017,01,17,16,21,8.30
2017,01,17,16,22,8.30
2017,01,17,16,23,8.30
2017,01,17,16,24,8.30
2017,01,17,16,25,8.20
2017,01,17,16,26,8.20
2017,01,17,16,27,8.20
2017,01,17,16,28,8.20
2017,01,17,16,29,8.20
2017,01,17,16,30,8.30
2017,01,17,16,31,8.30
2017,01,17,16,32,8.30
2017,01,17,16,33,8.30
2017,01,17,16,34,8.30
2017,01,17,16,35,8.30
2017,01,17,16,36,8.40
2017,01,17,16,37,8.40
2017,01,17,16,38,8.40
2017,01,17,16,39,8.40
2017,01,17,16,40,8.50
2017,01,17,16,41,8.40
2017,01,17,16,42,8.50
2017,01,17,16,43,8.50
2017,01,17,16,44,8.50
2017,01,17,16,45,8.50
2017,01,17,16,46,8.50
2017,01,17,16,47,8.50
2017,01,17,16,48,8.50
2017,01,17,16,49,8.50
2017,01,17,16,50,8.50
2017,01,17,16,51,8.60
2017,01,17,16,52,8.60
2017,01,17,16,53,8.60
2017,01,17,16,54,8.60
2017,01,17,16,55,8.60
2017,01,17,16,56,8.60
2017,01,17,16,57,8.70
2017,01,17,16,58,8.70
2017,01,17,16,59,8.70
2017,01,17,17,00,8.70
2017,01,17,17,01,8.70
2017,01,17,17,02,8.80
2017,01,17,17,03,8.80
2017,01,17,17,04,8.80
2017,01,17,17,05,8.80
2017,01,17,17,06,8.80
2017,01,17,17,07,8.80
2017,01,17,17,08,8.80
2017,01,17,17,09,8.80
2017,01,17,17,10,8.80
2017,01,17,17,11,8.80
2017,01,17,17,12,8.80
2017,01,17,17,13,8.80
2017,01,17,17,14,8.80
2017,01,17,17,15,8.80
2017,01,17,17,16,8.80
2017,01,17,17,17,8.80
2017,01,17,17,18,8.80
2017,01,17,17,19,8.80
2017,01,17,17,20,8.80
2017,01,17,17,21,8.80
2017,01,17,17,22,8.80
2017,01,17,17,23,8.80
2017,01,17,17,24,8.80
2017,01,17,17,25,8.80
2017,01,17,17,26,8.80
2017,01,17,17,27,8.80
2017,01,17,17,28,8.80
2017,01,17,17,29,8.80
2017,01,17,17,30,8.80
2017,01,17,17,31,8.80
2017,01,17,17,32,8.80
2017,01,17,17,33,8.80
2017,01,17,17,34,8.80
2017,01,17,17,35,8.90
2017,01,17,17,36,8.90
2017,01,17,17,37,8.90
2017,01,17,17,38,8.90
2017,01,17,17,39,8.90
2017,01,17,17,40,8.90
2017,01,17,17,41,8.90
2017,01,17,17,42,8.90
2017,01,17,17,43,8.80
2017,01,17,17,44,8.80
2017,01,17,17,45,8.80
2017,01,17,17,46,8.80
2017,01,17,17,47,8.80
2017,01,17,17,48,8.80
2017,01,17,17,49,8.80
2017,01,17,17,50,8.80
2017,01,17,17,51,8.80
2017,01,17,17,52,8.90
2017,01,17,17,53,8.90
2017,01,17,17,54,8.90
2017,01,17,17,55,8.80
2017,01,17,17,56,8.80
2017,01,17,17,57,8.80
2017,01,17,17,58,8.80